Location: ????????
(54.9045°N, 39.1041°E)
Time: 03:16:55
(UTC+00:00)

Cosmos 2278 Rocket - Pass Details

Date: 14 April 2024
Orbit: 839 x 846 km, 71.0° (Epoch: 25 May)

Event Time Altitude Azimuth Distance (km) Brightness Sun altitude
Rises 00:10:30 0° 325° (NW) 3,421 5.5 -16.8°
Reaches altitude 10° 00:12:59 10° 323° (NW) 2,482 4.7 -16.5°
Maximum altitude 00:18:37 66° 243° (WSW) 924 2.1 -15.9°
Drops below altitude 10° 00:24:13 10° 162° (SSE) 2,465 4.4 -15.4°
Sets 00:26:40 0° 160° (SSE) 3,396 5.1 -15.1°
